Location: Morisset
(33.1080°S, 151.4871°E)
Time: 09:08:56
(UTC+00:00)

Cosmos 2369 Rocket - Pass Details

Date: 29 October 2020
Orbit: 827 x 854 km, 71.0° (Epoch: 27 November)

Event Time Altitude Azimuth Distance (km) Brightness Sun altitude
Exits shadow 16:36:03 50° 27° (NNE) 1,063 2.5 -26.7°
Maximum altitude 16:37:11 60° 73° (ENE) 957 2.5 -26.5°
Drops below altitude 10° 16:42:45 10° 152° (SSE) 2,466 5.5 -25.6°
Sets 16:45:13 0° 155° (SSE) 3,403 6.4 -25.2°
